Find Starlink 32866

NORAD ID: 62858 Int'l Des: 2025-022 Owner: SPXS Country: US Constellation: starlink operational
LEOCIRCULAR

Live-Position

3D-Globus wird geladen...

Über Starlink 32866

Beschreibung wird geladen...

Nächste Überflüge

Passes for default location (London). Set your location on the main map for personalized predictions.

Höhenverlauf

Loading altitude history...

Zweizeiliger Elementsatz

1 62858U 25022E 26124.57324949 .00025588 00000-0 76616-3 0 9995
2 62858 53.1607 229.5064 0001392 85.4206 274.6955 15.34387611 70465
Epoch: 4. Mai 2026 • Age: 18 hours

Aktueller Status

Höhe 478.6 km
Geschwindigkeit 7.63 km/s
Subsatellitenpunkt -44.83°S, 168.86°W
Startdatum 2. Feb. 2025
Alter 1.2 years
Typ internet

Technische Details

Klassifizierung Payload
Masse 730.00 kg
Trockenmasse 700.00 kg
Gesamtmasse 730.00 kg
Länge 0.30 m
Durchmesser 4.10 m
Spannweite 29.00 m
Form Box + pan
Hersteller SPXS
Bus-Typ Starlink V2M
Phasenstatus In Orbit
Besitzer/Staat SPXS/US

Most Searched